Torna al catalogo

KUANFU GUANGXUE WEIXING

AttivoScienzaSSO
NORAD 59679·PAYLOAD·🇨🇳 China
Questo nome del satellite non è ancora stato confermato da fonti ufficiali.

Lanciato May 7, 2024 da Taiyuan Satellite Launch Center

Loading…

Prossimi Passaggi (prossime 24 ore)

TLE

AggiornatoSource: Space-Track

Epoca: Sep 14, 2026, 15:15 UTC

1 59679U 24085C   26257.63563935  .00008657  00000-0  25109-3 0  9993
2 59679  97.3224 332.8974 0027223  80.6950 279.7370 15.35396822131368

Traccia KUANFU GUANGXUE WEIXING in tempo reale con AllMySat

Download on the App Store